Weather History for EGUN - January, 2013

Change the Weather History Date:

Monday, January 7, 2013

  Actual Average (EGSC) Record (EGSC)
Temperature  
Mean Temperature 46 °F -  
Max Temperature 48 °F 43 °F 57 °F (2005)
Min Temperature 44 °F 37 °F 24 °F (2003)
Degree Days  
Heating Degree Days 19    
Moisture  
Dew Point 45 °F    
Average Humidity 94    
Maximum Humidity 100    
Minimum Humidity 87    
Precipitation  
Precipitation 0.00 in - - ()
Sea Level Pressure  
Sea Level Pressure 30.30 in    
Wind  
Wind Speed 8 mph ()    
Max Wind Speed 13 mph    
Max Gust Speed -    
Visibility 5.9 miles    
Events      
Averages and records for this station are not official NWS values.
T = Trace of Precipitation, MM = Missing Value Source: Averaged Metar Reports

Daily Weather History Graph

Daily Weather History Graph

Search for Another Location

Airport or City:

Trip Planner

Search our weather history database for the weather conditions in past years. The results will help you decide how hot, cold, wet, or windy it might be!

Date:

Astronomy

Jan. 07, 2013 Rise Set
Actual Time 8:06 AM GMT 4:02 PM GMT
Civil Twilight 7:25 AM GMT 4:43 PM GMT
Nautical Twilight 6:42 AM GMT 5:26 PM GMT
Astronomical Twilight 6:01 AM GMT 6:08 PM GMT
Moon 3:01 AM GMT (1/7) 12:11 PM GMT (1/7)
Length of Visible Light 9h 17m
Length of Day
7h 56m
Waning Crescent, 25% of the Moon is Illuminated
Jan 7
Waning Crescent
Jan 11
New
Jan 18
First Quarter
Jan 27
Full
Feb 3
Last Quarter

Hourly Weather History & Observations

Time (GMT) Temp. Windchill Dew Point Humidity Pressure Visibility Wind Dir Wind Speed Gust Speed Precip Events Conditions
12:58 AM 46.2 °F 42.2 °F 46.0 °F 99% 30.37 in 6.2 mi SW 8.1 mph - N/A   Overcast
1:43 AM 46.4 °F 43.5 °F 46.4 °F 100% 30.36 in 6.2 mi SSW 5.8 mph - N/A   Overcast
1:54 AM 46.4 °F 43.5 °F 46.4 °F 100% 30.36 in 6.2 mi SW 5.8 mph - N/A   Overcast
1:58 AM 46.0 °F 41.9 °F 46.0 °F 100% 30.36 in 6.2 mi SSW 8.1 mph - N/A   Overcast
2:05 AM 46.4 °F 42.4 °F 46.4 °F 100% 30.36 in 5.6 mi SSW 8.1 mph - N/A   Overcast
2:06 AM 46.4 °F 42.4 °F 46.4 °F 100% 30.36 in 5.6 mi SSW 8.1 mph - N/A   Overcast
2:26 AM 46.4 °F 42.9 °F 46.4 °F 100% 30.35 in 5.0 mi SW 6.9 mph - N/A   Overcast
2:32 AM 46.4 °F 42.4 °F 46.4 °F 100% 30.35 in 5.0 mi SW 8.1 mph - N/A   Overcast
2:36 AM 46.4 °F 42.4 °F 46.4 °F 100% 30.35 in 3.7 mi SW 8.1 mph - N/A   Overcast
2:40 AM 46.4 °F 42.9 °F 46.4 °F 100% 30.35 in 3.7 mi SW 6.9 mph - N/A   Overcast
2:41 AM 46.4 °F 42.9 °F 46.4 °F 100% 30.35 in 3.7 mi WSW 6.9 mph - N/A   Overcast
2:44 AM 46.4 °F 42.4 °F 46.4 °F 100% 30.35 in 3.7 mi SW 8.1 mph - N/A   Overcast
2:47 AM 46.4 °F 42.9 °F 46.4 °F 100% 30.35 in 3.7 mi SW 6.9 mph - N/A   Overcast
2:55 AM 46.4 °F 43.5 °F 46.4 °F 100% 30.35 in 5.0 mi SW 5.8 mph - N/A   Overcast
2:58 AM 46.0 °F 43.1 °F 46.0 °F 100% 30.36 in 5.0 mi SW 5.8 mph - N/A   Overcast
3:01 AM 46.4 °F 43.5 °F 46.4 °F 100% 30.35 in 5.6 mi SW 5.8 mph - N/A   Overcast
3:02 AM 46.4 °F 43.5 °F 46.4 °F 100% 30.35 in 5.6 mi SW 5.8 mph - N/A   Overcast
3:17 AM 46.4 °F 42.9 °F 46.4 °F 100% 30.35 in 6.2 mi SW 6.9 mph - N/A   Overcast
3:38 AM 46.4 °F 41.5 °F 46.4 °F 100% 30.35 in 6.2 mi SW 10.4 mph - N/A   Overcast
3:42 AM 46.4 °F 41.5 °F 46.4 °F 100% 30.34 in 6.2 mi SW 10.4 mph - N/A   Overcast
3:58 AM 45.7 °F 41.0 °F 45.5 °F 99% 30.35 in 6.2 mi SSW 9.2 mph - N/A   Overcast
4:19 AM 46.4 °F 42.9 °F 44.6 °F 93% 30.33 in 6.2 mi SSW 6.9 mph - N/A   Overcast
4:34 AM 46.4 °F 42.4 °F 44.6 °F 93% 30.32 in 6.2 mi SW 8.1 mph - N/A   Overcast
4:56 AM 46.4 °F 42.4 °F 44.6 °F 93% 30.31 in 6.2 mi SSW 8.1 mph - N/A   Overcast
4:58 AM 45.7 °F 42.0 °F 44.4 °F 95% 30.32 in 6.2 mi SSW 6.9 mph - N/A   Overcast
5:58 AM 45.3 °F 41.1 °F 44.1 °F 95% 30.31 in 6.2 mi South 8.1 mph - N/A   Overcast
6:22 AM 44.6 °F 40.2 °F 44.6 °F 100% 30.30 in 6.2 mi South 8.1 mph - N/A   Overcast
6:58 AM 45.3 °F 41.1 °F 43.3 °F 93% 30.32 in 6.2 mi SSW 8.1 mph - N/A   Overcast
7:58 AM 45.3 °F 40.1 °F 43.3 °F 93% 30.32 in 6.2 mi SSW 10.4 mph - N/A   Overcast
8:03 AM 44.6 °F 39.2 °F 42.8 °F 93% 30.31 in 6.2 mi SSW 10.4 mph - N/A   Overcast
8:58 AM 45.5 °F 39.9 °F 43.7 °F 93% 30.32 in 6.2 mi SW 11.5 mph - N/A   Overcast
9:58 AM 46.0 °F 41.4 °F 44.1 °F 93% 30.31 in 6.2 mi SSW 9.2 mph - N/A   Overcast
10:26 AM 46.4 °F 41.5 °F 44.6 °F 93% 30.30 in 6.2 mi SSW 10.4 mph - N/A   Overcast
10:58 AM 46.8 °F - 44.2 °F 91% 30.30 in 6.2 mi SSW 12.7 mph - N/A   Overcast
11:58 AM 47.8 °F - 44.8 °F 89% 30.29 in 6.2 mi SW 8.1 mph - N/A   Overcast
12:28 PM 48.2 °F - 44.6 °F 87% 30.27 in 6.2 mi SSW 10.4 mph - N/A   Overcast
12:58 PM 47.7 °F - 44.4 °F 89% 30.27 in 6.2 mi SW 10.4 mph - N/A   Overcast
1:58 PM 47.8 °F - 44.2 °F 87% 30.26 in 6.2 mi SSW 10.4 mph - N/A   Overcast
2:05 PM 48.2 °F - 44.6 °F 87% 30.25 in 6.2 mi SSW 9.2 mph - N/A   Overcast
2:06 PM 48.2 °F - 44.6 °F 87% 30.25 in 6.2 mi SSW 9.2 mph - N/A   Overcast
2:24 PM 48.2 °F - 44.6 °F 87% 30.25 in 6.2 mi SSW 9.2 mph - N/A   Overcast
2:25 PM 48.2 °F - 44.6 °F 87% 30.25 in 6.2 mi SSW 9.2 mph - N/A   Overcast
2:26 PM 48.2 °F - 44.6 °F 87% 30.25 in 6.2 mi SSW 8.1 mph - N/A   Overcast
2:35 PM 48.2 °F - 44.6 °F 87% 30.25 in 6.2 mi SSW 9.2 mph - N/A   Overcast
2:47 PM 48.2 °F - 44.6 °F 87% 30.25 in 6.2 mi SSW 9.2 mph - N/A   Overcast
2:58 PM 47.5 °F - 45.0 °F 91% 30.26 in 6.2 mi SSW 9.2 mph - N/A   Overcast
3:21 PM 48.2 °F - 44.6 °F 87% 30.25 in 6.2 mi SSW 8.1 mph - N/A   Overcast
3:47 PM 46.4 °F 42.9 °F 44.6 °F 93% 30.25 in 6.2 mi SSW 6.9 mph - N/A   Overcast
3:51 PM 46.4 °F 42.4 °F 44.6 °F 93% 30.25 in 6.2 mi SSW 8.1 mph - N/A   Overcast
3:58 PM 46.9 °F - 44.8 °F 92% 30.26 in 6.2 mi SSW 8.1 mph - N/A   Overcast
4:36 PM 46.4 °F 41.1 °F 44.6 °F 93% 30.23 in 6.2 mi SSW 11.5 mph - N/A   Overcast
4:41 PM 46.4 °F 41.5 °F 44.6 °F 93% 30.24 in 6.2 mi SSW 10.4 mph - N/A   Overcast
4:58 PM 46.6 °F - 44.2 °F 92% 30.25 in 6.2 mi SSW 9.2 mph - N/A   Overcast
5:23 PM 46.4 °F 41.5 °F 44.6 °F 93% 30.23 in 6.2 mi SSW 10.4 mph - N/A   Overcast
5:36 PM 46.4 °F 41.9 °F 44.6 °F 93% 30.24 in 6.2 mi SSW 9.2 mph - N/A   Mostly Cloudy
5:58 PM 46.6 °F - 44.4 °F 92% 30.24 in 6.2 mi SSW 11.5 mph - N/A   Mostly Cloudy
6:05 PM 46.4 °F 41.5 °F 44.6 °F 93% 30.24 in 6.2 mi SSW 10.4 mph - N/A   Mostly Cloudy
6:58 PM 45.9 °F 41.2 °F 44.1 °F 93% 30.24 in 6.2 mi SSW 9.2 mph - N/A   Mostly Cloudy
7:58 PM 45.9 °F 40.8 °F 44.2 °F 94% 30.24 in 6.2 mi SSW 10.4 mph - N/A   Overcast
8:58 PM 45.7 °F 40.6 °F 44.1 °F 94% 30.24 in 6.2 mi SSW 10.4 mph - N/A   Mostly Cloudy
9:58 PM 45.3 °F 41.1 °F 44.1 °F 95% 30.23 in 6.2 mi South 8.1 mph - N/A   Scattered Clouds
10:58 PM 44.4 °F 40.0 °F 43.3 °F 96% 30.23 in 6.2 mi SSW 8.1 mph - N/A   Clear
11:58 PM 44.1 °F 39.5 °F 43.0 °F 96% 30.23 in 6.2 mi SSW 8.1 mph - N/A   Clear